Location: *
(29.1167°S, 130.0000°E)
Time: 22:02:20
(UTC+00:00)

Okean-O - Pass Details

Date: 21 July 2019
Orbit: 638 x 641 km, 98.2° (Epoch: 24 August)

Event Time Altitude Azimuth Distance (km) Brightness Sun altitude
Rises 09:34:08 0° 167° (SSE) 2,974 5.8 -11.4°
Reaches altitude 10° 09:36:22 10° 166° (SSE) 2,057 4.9 -11.9°
Maximum altitude 09:40:52 82° 77° (ENE) 657 2.6 -12.8°
Drops below altitude 10° 09:45:18 10° 350° (N) 2,031 5.6 -13.7°
Sets 09:47:29 0° 349° (NNW) 2,933 6.4 -14.2°
